_id,Settlement_Date,Actual_Eligible_Demand_MWh,Actual_EII_Excluded_Electricity_MWh,CFD_Generation_as_proportion_Eligible_Demand
1,2016-04-01 00:00:00.0000000,885111.7290,0.0000,""
2,2016-04-02 00:00:00.0000000,786566.0420,0.0000,""
3,2016-04-03 00:00:00.0000000,756271.5650,0.0000,""
4,2016-04-04 00:00:00.0000000,864023.2510,0.0000,""
5,2016-04-05 00:00:00.0000000,861447.8270,0.0000,""
6,2016-04-06 00:00:00.0000000,879293.5870,0.0000,""
7,2016-04-07 00:00:00.0000000,893796.4440,0.0000,""
8,2016-04-08 00:00:00.0000000,860461.8630,0.0000,""
9,2016-04-09 00:00:00.0000000,783150.4630,0.0000,""
10,2016-04-10 00:00:00.0000000,764735.2070,0.0000,""
11,2016-04-11 00:00:00.0000000,875652.1890,0.0000,""
12,2016-04-12 00:00:00.0000000,876058.7940,0.0000,""
13,2016-04-13 00:00:00.0000000,856988.2720,0.0000,""
14,2016-04-14 00:00:00.0000000,857565.2100,0.0000,""
15,2016-04-15 00:00:00.0000000,871721.1670,0.0000,""
16,2016-04-16 00:00:00.0000000,792524.4880,0.0000,""
17,2016-04-17 00:00:00.0000000,763295.4370,0.0000,""
18,2016-04-18 00:00:00.0000000,877410.7920,0.0000,""
19,2016-04-19 00:00:00.0000000,845394.2300,0.0000,""
20,2016-04-20 00:00:00.0000000,836999.4390,0.0000,""
21,2016-04-21 00:00:00.0000000,839462.9220,0.0000,""
22,2016-04-22 00:00:00.0000000,852014.9400,0.0000,""
23,2016-04-23 00:00:00.0000000,767851.1380,0.0000,""
24,2016-04-24 00:00:00.0000000,758353.3540,0.0000,""
25,2016-04-25 00:00:00.0000000,875638.3150,0.0000,""
26,2016-04-26 00:00:00.0000000,892521.6310,0.0000,""
27,2016-04-27 00:00:00.0000000,889958.1830,0.0000,""
28,2016-04-28 00:00:00.0000000,897821.8900,0.0000,""
29,2016-04-29 00:00:00.0000000,879083.5390,0.0000,""
30,2016-04-30 00:00:00.0000000,772422.7110,0.0000,""
31,2016-05-01 00:00:00.0000000,746490.3720,0.0000,""
32,2016-05-02 00:00:00.0000000,764487.7080,0.0000,""
33,2016-05-03 00:00:00.0000000,830386.4960,0.0000,""
34,2016-05-04 00:00:00.0000000,818711.8790,0.0000,""
35,2016-05-05 00:00:00.0000000,803267.1260,0.0000,""
36,2016-05-06 00:00:00.0000000,784062.9630,0.0000,""
37,2016-05-07 00:00:00.0000000,703815.2900,0.0000,""
38,2016-05-08 00:00:00.0000000,671462.7220,0.0000,""
39,2016-05-09 00:00:00.0000000,778450.7520,0.0000,""
40,2016-05-10 00:00:00.0000000,808362.9000,0.0000,""
41,2016-05-11 00:00:00.0000000,807601.7150,0.0000,""
42,2016-05-12 00:00:00.0000000,784740.6540,0.0000,""
43,2016-05-13 00:00:00.0000000,776634.7530,0.0000,""
44,2016-05-14 00:00:00.0000000,692908.0180,0.0000,""
45,2016-05-15 00:00:00.0000000,677822.4170,0.0000,""
46,2016-05-16 00:00:00.0000000,775329.9880,0.0000,""
47,2016-05-17 00:00:00.0000000,786959.5140,0.0000,""
48,2016-05-18 00:00:00.0000000,805915.8090,0.0000,""
49,2016-05-19 00:00:00.0000000,803867.2260,0.0000,""
50,2016-05-20 00:00:00.0000000,778879.1490,0.0000,""
51,2016-05-21 00:00:00.0000000,713691.9170,0.0000,""
52,2016-05-22 00:00:00.0000000,678371.0210,0.0000,""
53,2016-05-23 00:00:00.0000000,770292.8330,0.0000,""
54,2016-05-24 00:00:00.0000000,775701.3830,0.0000,""
55,2016-05-25 00:00:00.0000000,811221.4910,0.0000,""
56,2016-05-26 00:00:00.0000000,799701.3170,0.0000,""
57,2016-05-27 00:00:00.0000000,768565.2010,0.0000,""
58,2016-05-28 00:00:00.0000000,674842.1440,0.0000,""
59,2016-05-29 00:00:00.0000000,642977.4220,0.0000,""
60,2016-05-30 00:00:00.0000000,679559.3200,0.0000,""
61,2016-05-31 00:00:00.0000000,781424.3000,0.0000,""
62,2016-06-01 00:00:00.0000000,800809.7140,0.0000,""
63,2016-06-02 00:00:00.0000000,783789.1380,0.0000,""
64,2016-06-03 00:00:00.0000000,768289.7830,0.0000,""
65,2016-06-04 00:00:00.0000000,689112.4650,0.0000,""
66,2016-06-05 00:00:00.0000000,652677.0210,0.0000,""
67,2016-06-06 00:00:00.0000000,753704.7390,0.0000,""
68,2016-06-07 00:00:00.0000000,773868.6980,0.0000,""
69,2016-06-08 00:00:00.0000000,778119.8880,0.0000,""
70,2016-06-09 00:00:00.0000000,769068.7730,0.0000,""
71,2016-06-10 00:00:00.0000000,769577.7380,0.0000,""
72,2016-06-11 00:00:00.0000000,692959.0650,0.0000,""
73,2016-06-12 00:00:00.0000000,679275.3150,0.0000,""
74,2016-06-13 00:00:00.0000000,782601.7810,0.0000,""
75,2016-06-14 00:00:00.0000000,787278.2760,0.0000,""
76,2016-06-15 00:00:00.0000000,787523.1250,0.0000,""
77,2016-06-16 00:00:00.0000000,779509.6130,0.0000,""
78,2016-06-17 00:00:00.0000000,766324.2650,0.0000,""
79,2016-06-18 00:00:00.0000000,682826.0750,0.0000,""
80,2016-06-19 00:00:00.0000000,670052.8160,0.0000,""
81,2016-06-20 00:00:00.0000000,777915.6000,0.0000,""
82,2016-06-21 00:00:00.0000000,768315.0720,0.0000,""
83,2016-06-22 00:00:00.0000000,780393.6660,0.0000,""
84,2016-06-23 00:00:00.0000000,782407.2270,0.0000,""
85,2016-06-24 00:00:00.0000000,754433.4570,0.0000,""
86,2016-06-25 00:00:00.0000000,674212.8350,0.0000,""
87,2016-06-26 00:00:00.0000000,664198.9530,0.0000,""
88,2016-06-27 00:00:00.0000000,752570.5890,0.0000,""
89,2016-06-28 00:00:00.0000000,770795.0140,0.0000,""
90,2016-06-29 00:00:00.0000000,772916.5880,0.0000,""
91,2016-06-30 00:00:00.0000000,768153.3260,0.0000,0.0000
92,2016-07-01 00:00:00.0000000,763293.9270,0.0000,0.0000
93,2016-07-02 00:00:00.0000000,680410.5350,0.0000,0.0001
94,2016-07-03 00:00:00.0000000,657880.0810,0.0000,0.0001
95,2016-07-04 00:00:00.0000000,766302.0760,0.0000,0.0000
96,2016-07-05 00:00:00.0000000,768614.8910,0.0000,0.0000
97,2016-07-06 00:00:00.0000000,766973.1970,0.0000,0.0000
98,2016-07-07 00:00:00.0000000,777115.8350,0.0000,0.0000
99,2016-07-08 00:00:00.0000000,764670.4140,0.0000,0.0001
100,2016-07-09 00:00:00.0000000,696181.5610,0.0000,0.0000
101,2016-07-10 00:00:00.0000000,677088.2140,0.0000,0.0000
102,2016-07-11 00:00:00.0000000,772563.2160,0.0000,0.0000
103,2016-07-12 00:00:00.0000000,776227.6740,0.0000,0.0000
104,2016-07-13 00:00:00.0000000,769277.0200,0.0000,0.0000
105,2016-07-14 00:00:00.0000000,762461.4210,0.0000,0.0000
106,2016-07-15 00:00:00.0000000,766209.2060,0.0000,0.0000
107,2016-07-16 00:00:00.0000000,689189.0610,0.0000,0.0000
108,2016-07-17 00:00:00.0000000,663663.1860,0.0000,0.0001
109,2016-07-18 00:00:00.0000000,769423.4190,0.0000,0.0001
110,2016-07-19 00:00:00.0000000,792668.6290,0.0000,0.0001
111,2016-07-20 00:00:00.0000000,802032.9110,0.0000,0.0001
112,2016-07-21 00:00:00.0000000,777448.6680,0.0000,0.0000
113,2016-07-22 00:00:00.0000000,763188.3940,0.0000,0.0000
114,2016-07-23 00:00:00.0000000,678380.7360,0.0000,0.0001
115,2016-07-24 00:00:00.0000000,663580.8730,0.0000,0.0000
116,2016-07-25 00:00:00.0000000,747070.9020,0.0000,0.0000
117,2016-07-26 00:00:00.0000000,757107.9650,0.0000,0.0000
118,2016-07-27 00:00:00.0000000,760641.3320,0.0000,0.0000
119,2016-07-28 00:00:00.0000000,758988.6710,0.0000,0.0000
120,2016-07-29 00:00:00.0000000,747232.7090,0.0000,0.0000
121,2016-07-30 00:00:00.0000000,661948.1110,0.0000,0.0000
122,2016-07-31 00:00:00.0000000,640436.6680,0.0000,0.0000
123,2016-08-01 00:00:00.0000000,742290.4230,0.0000,0.0000
124,2016-08-02 00:00:00.0000000,767852.5930,0.0000,0.0000
125,2016-08-03 00:00:00.0000000,758593.1510,0.0000,0.0000
126,2016-08-04 00:00:00.0000000,751079.9460,0.0000,0.0000
127,2016-08-05 00:00:00.0000000,734097.5520,0.0000,0.0000
128,2016-08-06 00:00:00.0000000,666144.1060,0.0000,0.0001
129,2016-08-07 00:00:00.0000000,658140.0230,0.0000,0.0001
130,2016-08-08 00:00:00.0000000,744284.1430,0.0000,0.0000
131,2016-08-09 00:00:00.0000000,748314.1690,0.0000,0.0000
132,2016-08-10 00:00:00.0000000,753872.5930,0.0000,0.0000
133,2016-08-11 00:00:00.0000000,769312.8800,0.0000,0.0000
134,2016-08-12 00:00:00.0000000,751763.8310,0.0000,0.0000
135,2016-08-13 00:00:00.0000000,675835.9940,0.0000,0.0000
136,2016-08-14 00:00:00.0000000,654889.7490,0.0000,0.0000
137,2016-08-15 00:00:00.0000000,744704.2780,0.0000,0.0001
138,2016-08-16 00:00:00.0000000,755342.7830,0.0000,0.0001
139,2016-08-17 00:00:00.0000000,760836.2860,0.0000,0.0001
140,2016-08-18 00:00:00.0000000,768213.8360,0.0000,0.0000
141,2016-08-19 00:00:00.0000000,769780.5690,0.0000,0.0000
142,2016-08-20 00:00:00.0000000,685498.6650,0.0000,0.0000
143,2016-08-21 00:00:00.0000000,664180.7590,0.0000,0.0000
144,2016-08-22 00:00:00.0000000,763066.5240,0.0000,0.0000
145,2016-08-23 00:00:00.0000000,776799.7390,0.0000,0.0001
146,2016-08-24 00:00:00.0000000,787448.8330,0.0000,0.0000
147,2016-08-25 00:00:00.0000000,800664.8330,0.0000,0.0000
148,2016-08-26 00:00:00.0000000,756377.0200,0.0000,0.0001
149,2016-08-27 00:00:00.0000000,684528.0380,0.0000,0.0000
150,2016-08-28 00:00:00.0000000,659190.2170,0.0000,0.0000
151,2016-08-29 00:00:00.0000000,670220.3960,0.0000,0.0000
152,2016-08-30 00:00:00.0000000,758978.2960,0.0000,0.0000
153,2016-08-31 00:00:00.0000000,777037.9800,0.0000,0.0000
154,2016-09-01 00:00:00.0000000,771219.7870,0.0000,0.0000
155,2016-09-02 00:00:00.0000000,771274.4470,0.0000,0.0000
156,2016-09-03 00:00:00.0000000,702842.4530,0.0000,0.0000
157,2016-09-04 00:00:00.0000000,679523.1400,0.0000,0.0000
158,2016-09-05 00:00:00.0000000,788186.6600,0.0000,0.0000
159,2016-09-06 00:00:00.0000000,807288.4780,0.0000,0.0000
160,2016-09-07 00:00:00.0000000,809199.4960,0.0000,0.0000
161,2016-09-08 00:00:00.0000000,794582.1740,0.0000,0.0000
162,2016-09-09 00:00:00.0000000,788459.7550,0.0000,0.0000
163,2016-09-10 00:00:00.0000000,707145.2760,0.0000,0.0000
164,2016-09-11 00:00:00.0000000,669063.6110,0.0000,0.0000
165,2016-09-12 00:00:00.0000000,788197.2850,0.0000,0.0000
166,2016-09-13 00:00:00.0000000,811142.4690,0.0000,0.0000
167,2016-09-14 00:00:00.0000000,808964.1850,0.0000,0.0000
168,2016-09-15 00:00:00.0000000,806387.3120,0.0000,0.0000
169,2016-09-16 00:00:00.0000000,784317.2770,0.0000,0.0000
170,2016-09-17 00:00:00.0000000,694742.4230,0.0000,0.0000
171,2016-09-18 00:00:00.0000000,677578.8710,0.0000,0.0000
172,2016-09-19 00:00:00.0000000,789790.5920,0.0000,0.0000
173,2016-09-20 00:00:00.0000000,797820.5880,0.0000,0.0000
174,2016-09-21 00:00:00.0000000,800137.0380,0.0000,0.0000
175,2016-09-22 00:00:00.0000000,792023.4230,0.0000,0.0000
176,2016-09-23 00:00:00.0000000,771494.7820,0.0000,0.0000
177,2016-09-24 00:00:00.0000000,704912.3300,0.0000,0.0000
178,2016-09-25 00:00:00.0000000,682935.1790,0.0000,0.0000
179,2016-09-26 00:00:00.0000000,798623.1970,0.0000,0.0000
180,2016-09-27 00:00:00.0000000,815039.4400,0.0000,0.0000
181,2016-09-28 00:00:00.0000000,810024.5500,0.0000,0.0000
182,2016-09-29 00:00:00.0000000,805597.1400,0.0000,0.0000
183,2016-09-30 00:00:00.0000000,783790.9680,0.0000,0.0000
184,2016-10-01 00:00:00.0000000,729377.1290,0.0000,0.0000
185,2016-10-02 00:00:00.0000000,708016.6810,0.0000,0.0000
186,2016-10-03 00:00:00.0000000,808773.5650,0.0000,0.0000
187,2016-10-04 00:00:00.0000000,824172.1510,0.0000,0.0000
188,2016-10-05 00:00:00.0000000,821117.1580,0.0000,0.0000
189,2016-10-06 00:00:00.0000000,833863.7270,0.0000,0.0000
190,2016-10-07 00:00:00.0000000,833923.3470,0.0000,0.0000
191,2016-10-08 00:00:00.0000000,744149.5320,0.0000,0.0000
192,2016-10-09 00:00:00.0000000,725035.0700,0.0000,0.0000
193,2016-10-10 00:00:00.0000000,837484.6960,0.0000,0.0000
194,2016-10-11 00:00:00.0000000,858958.8270,0.0000,0.0000
195,2016-10-12 00:00:00.0000000,856566.4690,0.0000,0.0000
196,2016-10-13 00:00:00.0000000,862665.6170,0.0000,0.0000
197,2016-10-14 00:00:00.0000000,846916.5370,0.0000,0.0000
198,2016-10-15 00:00:00.0000000,765340.1750,0.0000,0.0000
199,2016-10-16 00:00:00.0000000,752440.3630,0.0000,0.0000
200,2016-10-17 00:00:00.0000000,842416.4450,0.0000,0.0000
201,2016-10-18 00:00:00.0000000,866053.5350,0.0000,0.0000
202,2016-10-19 00:00:00.0000000,870501.2180,0.0000,0.0000
203,2016-10-20 00:00:00.0000000,872349.1900,0.0000,0.0000
204,2016-10-21 00:00:00.0000000,858827.1900,0.0000,0.0000
205,2016-10-22 00:00:00.0000000,779683.5110,0.0000,0.0000
206,2016-10-23 00:00:00.0000000,765577.2260,0.0000,0.0000
207,2016-10-24 00:00:00.0000000,876727.9800,0.0000,0.0000
208,2016-10-25 00:00:00.0000000,878017.1090,0.0000,0.0000
209,2016-10-26 00:00:00.0000000,873030.7250,0.0000,0.0000
210,2016-10-27 00:00:00.0000000,874972.8380,0.0000,0.0000
211,2016-10-28 00:00:00.0000000,852873.0610,0.0000,0.0000
212,2016-10-29 00:00:00.0000000,776294.3320,0.0000,0.0000
213,2016-10-30 00:00:00.0000000,790123.1420,0.0000,0.0000
214,2016-10-31 00:00:00.0000000,855850.4000,0.0000,0.0000
215,2016-11-01 00:00:00.0000000,895244.4000,0.0000,0.0000
216,2016-11-02 00:00:00.0000000,908677.3040,0.0000,0.0000
217,2016-11-03 00:00:00.0000000,930391.3000,0.0000,0.0000
218,2016-11-04 00:00:00.0000000,908846.0870,0.0000,0.0000
219,2016-11-05 00:00:00.0000000,839625.8690,0.0000,0.0000
220,2016-11-06 00:00:00.0000000,847563.6010,0.0000,0.0000
221,2016-11-07 00:00:00.0000000,951779.1050,0.0000,0.0000
222,2016-11-08 00:00:00.0000000,987006.3830,0.0000,0.0000
223,2016-11-09 00:00:00.0000000,988907.7580,0.0000,0.0000
224,2016-11-10 00:00:00.0000000,970150.1110,0.0000,0.0000
225,2016-11-11 00:00:00.0000000,950777.2260,0.0000,0.0000
226,2016-11-12 00:00:00.0000000,870336.5690,0.0000,0.0000
227,2016-11-13 00:00:00.0000000,836215.7150,0.0000,0.0000
228,2016-11-14 00:00:00.0000000,939976.5010,0.0000,0.0000
229,2016-11-15 00:00:00.0000000,924360.4510,0.0000,0.0000
230,2016-11-16 00:00:00.0000000,925581.9820,0.0000,0.0000
231,2016-11-17 00:00:00.0000000,951401.6480,0.0000,0.0000
232,2016-11-18 00:00:00.0000000,960715.6910,0.0000,0.0000
233,2016-11-19 00:00:00.0000000,884543.6670,0.0000,0.0000
234,2016-11-20 00:00:00.0000000,874466.0730,0.0000,0.0000
235,2016-11-21 00:00:00.0000000,993581.5120,0.0000,0.0000
236,2016-11-22 00:00:00.0000000,982557.1090,0.0000,0.0000
237,2016-11-23 00:00:00.0000000,982172.9160,0.0000,0.0000
238,2016-11-24 00:00:00.0000000,982175.3730,0.0000,0.0000
239,2016-11-25 00:00:00.0000000,964304.6110,0.0000,0.0000
240,2016-11-26 00:00:00.0000000,889514.3930,0.0000,0.0000
241,2016-11-27 00:00:00.0000000,870222.6820,0.0000,0.0000
242,2016-11-28 00:00:00.0000000,975354.5460,0.0000,0.0000
243,2016-11-29 00:00:00.0000000,1016092.8820,0.0000,0.0000
244,2016-11-30 00:00:00.0000000,1033208.4970,0.0000,0.0000
245,2016-12-01 00:00:00.0000000,1019627.7130,0.0000,0.0000
246,2016-12-02 00:00:00.0000000,993472.2310,0.0000,0.0000
247,2016-12-03 00:00:00.0000000,898409.2290,0.0000,0.0000
248,2016-12-04 00:00:00.0000000,891387.1140,0.0000,0.0000
249,2016-12-05 00:00:00.0000000,1023526.3310,0.0000,0.0000
250,2016-12-06 00:00:00.0000000,1022901.4600,0.0000,0.0000
251,2016-12-07 00:00:00.0000000,975070.2180,0.0000,0.0000
252,2016-12-08 00:00:00.0000000,962316.1290,0.0000,0.0000
253,2016-12-09 00:00:00.0000000,937612.9910,0.0000,0.0000
254,2016-12-10 00:00:00.0000000,859247.6010,0.0000,0.0000
255,2016-12-11 00:00:00.0000000,850069.7970,0.0000,0.0000
256,2016-12-12 00:00:00.0000000,979271.5730,0.0000,0.0000
257,2016-12-13 00:00:00.0000000,971680.4700,0.0000,0.0000
258,2016-12-14 00:00:00.0000000,947346.1610,0.0000,0.0000
259,2016-12-15 00:00:00.0000000,963713.5500,0.0000,0.0000
260,2016-12-16 00:00:00.0000000,937566.1320,0.0000,0.0000
261,2016-12-17 00:00:00.0000000,867169.1850,0.0000,0.0000
262,2016-12-18 00:00:00.0000000,852813.4390,0.0000,0.0000
263,2016-12-19 00:00:00.0000000,966406.0360,0.0000,0.0000
264,2016-12-20 00:00:00.0000000,972306.8470,0.0000,0.0000
265,2016-12-21 00:00:00.0000000,965421.4320,0.0000,0.0156
266,2016-12-22 00:00:00.0000000,944147.4020,0.0000,0.0159
267,2016-12-23 00:00:00.0000000,871638.5130,0.0000,0.0172
268,2016-12-24 00:00:00.0000000,791887.1850,0.0000,0.0185
269,2016-12-25 00:00:00.0000000,701706.7130,0.0000,0.0212
270,2016-12-26 00:00:00.0000000,713691.8090,0.0000,0.0211
271,2016-12-27 00:00:00.0000000,798011.1070,0.0000,0.0188
272,2016-12-28 00:00:00.0000000,885954.6590,0.0000,0.0170
273,2016-12-29 00:00:00.0000000,895672.9750,0.0000,0.0168
274,2016-12-30 00:00:00.0000000,892814.8660,0.0000,0.0167
275,2016-12-31 00:00:00.0000000,829284.9060,0.0000,0.0181
276,2017-01-01 00:00:00.0000000,804285.6790,0.0000,0.0187
277,2017-01-02 00:00:00.0000000,862794.5810,0.0000,0.0175
278,2017-01-03 00:00:00.0000000,994259.3910,0.0000,0.0055
279,2017-01-04 00:00:00.0000000,1001511.7820,0.0000,0.0148
280,2017-01-05 00:00:00.0000000,1025207.4090,0.0000,0.0147
281,2017-01-06 00:00:00.0000000,1020471.7870,0.0000,0.0148
282,2017-01-07 00:00:00.0000000,887937.3580,0.0000,0.0170
283,2017-01-08 00:00:00.0000000,855925.3000,0.0000,0.0177
284,2017-01-09 00:00:00.0000000,977435.2270,0.0000,0.0153
285,2017-01-10 00:00:00.0000000,992945.1410,0.0000,0.0152
286,2017-01-11 00:00:00.0000000,988915.7360,0.0000,0.0152
287,2017-01-12 00:00:00.0000000,1026306.2030,0.0000,0.0147
288,2017-01-13 00:00:00.0000000,1035700.7900,0.0000,0.0145
289,2017-01-14 00:00:00.0000000,937558.3450,0.0000,0.0161
290,2017-01-15 00:00:00.0000000,906772.4040,0.0000,0.0166
291,2017-01-16 00:00:00.0000000,993077.1270,0.0000,0.0152
292,2017-01-17 00:00:00.0000000,1003467.2340,0.0000,0.0150
293,2017-01-18 00:00:00.0000000,1014227.7600,0.0000,0.0149
294,2017-01-19 00:00:00.0000000,1012794.1070,0.0000,0.0149
295,2017-01-20 00:00:00.0000000,1000339.4930,0.0000,0.0151
296,2017-01-21 00:00:00.0000000,933997.0540,0.0000,0.0162
297,2017-01-22 00:00:00.0000000,921008.3750,0.0000,0.0164
298,2017-01-23 00:00:00.0000000,1034953.3600,0.0000,0.0146
299,2017-01-24 00:00:00.0000000,1025707.5980,0.0000,0.0147
300,2017-01-25 00:00:00.0000000,1032390.5100,0.0000,0.0145
301,2017-01-26 00:00:00.0000000,1069393.0280,0.0000,0.0141
302,2017-01-27 00:00:00.0000000,1044903.1610,0.0000,0.0144
303,2017-01-28 00:00:00.0000000,913051.3300,0.0000,0.0165
304,2017-01-29 00:00:00.0000000,898389.0840,0.0000,0.0168
305,2017-01-30 00:00:00.0000000,995740.8600,0.0000,0.0151
306,2017-01-31 00:00:00.0000000,1009690.2390,0.0000,0.0149
307,2017-02-01 00:00:00.0000000,978137.0960,0.0000,0.0154
308,2017-02-02 00:00:00.0000000,970281.5150,0.0000,0.0151
309,2017-02-03 00:00:00.0000000,954473.7090,0.0000,0.0153
310,2017-02-04 00:00:00.0000000,880745.8170,0.0000,0.0171
311,2017-02-05 00:00:00.0000000,877613.0340,0.0000,0.0172
312,2017-02-06 00:00:00.0000000,1009555.9380,0.0000,0.0149
313,2017-02-07 00:00:00.0000000,990346.4320,0.0000,0.0153
314,2017-02-08 00:00:00.0000000,1012531.0220,0.0000,0.0149
315,2017-02-09 00:00:00.0000000,1040488.2910,0.0000,0.0145
316,2017-02-10 00:00:00.0000000,1036621.5180,0.0000,0.0143
317,2017-02-11 00:00:00.0000000,961348.0470,0.0000,0.0147
318,2017-02-12 00:00:00.0000000,936992.5530,0.0000,0.0158
319,2017-02-13 00:00:00.0000000,1000013.4910,0.0000,0.0150
320,2017-02-14 00:00:00.0000000,997522.7030,0.0000,0.0151
321,2017-02-15 00:00:00.0000000,967855.0430,0.0000,0.0155
322,2017-02-16 00:00:00.0000000,953759.5610,0.0000,0.0153
323,2017-02-17 00:00:00.0000000,924393.9300,0.0000,0.0160
324,2017-02-18 00:00:00.0000000,845068.6820,0.0000,0.0178
325,2017-02-19 00:00:00.0000000,825960.0160,0.0000,0.0182
326,2017-02-20 00:00:00.0000000,911971.9510,0.0000,0.0165
327,2017-02-21 00:00:00.0000000,924004.4940,0.0000,0.0163
328,2017-02-22 00:00:00.0000000,925848.0410,0.0000,0.0162
329,2017-02-23 00:00:00.0000000,943804.2960,0.0000,0.0160
330,2017-02-24 00:00:00.0000000,927940.6810,0.0000,0.0163
331,2017-02-25 00:00:00.0000000,863854.8580,0.0000,0.0174
332,2017-02-26 00:00:00.0000000,831260.8720,0.0000,0.0181
333,2017-02-27 00:00:00.0000000,950277.8160,0.0000,0.0159
334,2017-02-28 00:00:00.0000000,969531.3990,0.0000,0.0156
335,2017-03-01 00:00:00.0000000,958807.7050,0.0000,0.0157
336,2017-03-02 00:00:00.0000000,951715.2860,0.0000,0.0159
337,2017-03-03 00:00:00.0000000,951235.7690,0.0000,0.0103
338,2017-03-04 00:00:00.0000000,838602.0740,0.0000,0.0179
339,2017-03-05 00:00:00.0000000,837835.9800,0.0000,0.0180
340,2017-03-06 00:00:00.0000000,927716.0800,0.0000,0.0162
341,2017-03-07 00:00:00.0000000,930586.7400,0.0000,0.0162
342,2017-03-08 00:00:00.0000000,924303.5000,0.0000,0.0163
343,2017-03-09 00:00:00.0000000,889657.6850,0.0000,0.0169
344,2017-03-10 00:00:00.0000000,896874.2360,0.0000,0.0168
345,2017-03-11 00:00:00.0000000,800043.1210,0.0000,0.0188
346,2017-03-12 00:00:00.0000000,783292.7720,0.0000,0.0192
347,2017-03-13 00:00:00.0000000,875321.3870,0.0000,0.0166
348,2017-03-14 00:00:00.0000000,887382.0960,0.0000,0.0169
349,2017-03-15 00:00:00.0000000,866729.0930,0.0000,0.0171
350,2017-03-16 00:00:00.0000000,889049.3150,0.0000,0.0169
351,2017-03-17 00:00:00.0000000,893426.3760,0.0000,0.0168
352,2017-03-18 00:00:00.0000000,800990.0840,0.0000,0.0188
353,2017-03-19 00:00:00.0000000,774849.5470,0.0000,0.0194
354,2017-03-20 00:00:00.0000000,883816.1340,0.0000,0.0146
355,2017-03-21 00:00:00.0000000,895922.7560,0.0000,0.0000
356,2017-03-22 00:00:00.0000000,933892.1060,0.0000,0.0058
357,2017-03-23 00:00:00.0000000,914675.1490,0.0000,0.0161
358,2017-03-24 00:00:00.0000000,879623.2950,0.0000,0.0172
359,2017-03-25 00:00:00.0000000,771322.9370,0.0000,0.0194
360,2017-03-26 00:00:00.0000000,710356.5390,0.0000,0.0204
361,2017-03-27 00:00:00.0000000,853544.0130,0.0000,0.0176
362,2017-03-28 00:00:00.0000000,866068.1880,0.0000,0.0168
363,2017-03-29 00:00:00.0000000,867330.9000,0.0000,0.0174
364,2017-03-30 00:00:00.0000000,830061.7680,0.0000,0.0181
365,2017-03-31 00:00:00.0000000,815503.1260,0.0000,0.0185
366,2017-04-01 00:00:00.0000000,747525.5890,0.0000,0.0201
367,2017-04-02 00:00:00.0000000,720034.0690,0.0000,0.0210
368,2017-04-03 00:00:00.0000000,822673.4570,0.0000,0.0182
369,2017-04-04 00:00:00.0000000,841598.0190,0.0000,0.0179
370,2017-04-05 00:00:00.0000000,837486.2920,0.0000,0.0180
371,2017-04-06 00:00:00.0000000,830389.9870,0.0000,0.0180
372,2017-04-07 00:00:00.0000000,811170.4610,0.0000,0.0186
373,2017-04-08 00:00:00.0000000,714471.3360,0.0000,0.0211
374,2017-04-09 00:00:00.0000000,691285.2390,0.0000,0.0214
375,2017-04-10 00:00:00.0000000,800519.2380,0.0000,0.0187
376,2017-04-11 00:00:00.0000000,818753.2210,0.0000,0.0216
377,2017-04-12 00:00:00.0000000,829222.6120,0.0000,0.0224
378,2017-04-13 00:00:00.0000000,817310.7340,0.0000,0.0206
379,2017-04-14 00:00:00.0000000,752992.7130,0.0000,0.0229
380,2017-04-15 00:00:00.0000000,715503.8700,0.0000,0.0258
381,2017-04-16 00:00:00.0000000,703248.0930,0.0000,0.0250
382,2017-04-17 00:00:00.0000000,729012.6850,0.0000,0.0213
383,2017-04-18 00:00:00.0000000,812449.0120,0.0000,0.0189
384,2017-04-19 00:00:00.0000000,827678.0940,0.0000,0.0188
385,2017-04-20 00:00:00.0000000,830235.4740,0.0000,0.0194
386,2017-04-21 00:00:00.0000000,818570.0240,0.0000,0.0215
387,2017-04-22 00:00:00.0000000,725565.2750,0.0000,0.0232
388,2017-04-23 00:00:00.0000000,707844.1930,0.0000,0.0224
389,2017-04-24 00:00:00.0000000,828623.7970,0.0000,0.0226
390,2017-04-25 00:00:00.0000000,859386.8390,0.0000,0.0212
391,2017-04-26 00:00:00.0000000,868724.7300,0.0000,0.0190
392,2017-04-27 00:00:00.0000000,872023.5420,0.0000,0.0169
393,2017-04-28 00:00:00.0000000,834249.5010,0.0000,0.0189
394,2017-04-29 00:00:00.0000000,741243.1050,0.0000,0.0235
395,2017-04-30 00:00:00.0000000,712671.9760,0.0000,0.0296
396,2017-05-01 00:00:00.0000000,733167.6320,0.0000,0.0236
397,2017-05-02 00:00:00.0000000,810493.6940,0.0000,0.0206
398,2017-05-03 00:00:00.0000000,830104.2930,0.0000,0.0240
399,2017-05-04 00:00:00.0000000,820968.5270,0.0000,0.0249
400,2017-05-05 00:00:00.0000000,798703.5910,0.0000,0.0253
401,2017-05-06 00:00:00.0000000,734040.6930,0.0000,0.0240
402,2017-05-07 00:00:00.0000000,702064.9940,0.0000,0.0239
403,2017-05-08 00:00:00.0000000,813858.1310,0.0000,0.0212
404,2017-05-09 00:00:00.0000000,817947.0180,0.0000,0.0191
405,2017-05-10 00:00:00.0000000,797381.3440,0.0000,0.0190
406,2017-05-11 00:00:00.0000000,795465.7910,0.0000,0.0107
407,2017-05-12 00:00:00.0000000,794180.8920,0.0000,0.0018
408,2017-05-13 00:00:00.0000000,711911.9320,0.0000,0.0222
409,2017-05-14 00:00:00.0000000,681187.6210,0.0000,0.0263
410,2017-05-15 00:00:00.0000000,812747.9410,0.0000,0.0255
411,2017-05-16 00:00:00.0000000,807739.3880,0.0000,0.0251
412,2017-05-17 00:00:00.0000000,815153.7520,0.0000,0.0199
413,2017-05-18 00:00:00.0000000,792119.4380,0.0000,0.0195
414,2017-05-19 00:00:00.0000000,786979.7920,0.0000,0.0208
415,2017-05-20 00:00:00.0000000,707670.8880,0.0000,0.0236
416,2017-05-21 00:00:00.0000000,678724.7940,0.0000,0.0257
417,2017-05-22 00:00:00.0000000,769533.9090,0.0000,0.0223
418,2017-05-23 00:00:00.0000000,777560.4330,0.0000,0.0203
419,2017-05-24 00:00:00.0000000,776570.7900,0.0000,0.0198